Tracking 32460 objects as of 12-Dec-2025
HD Live streaming from Space Station
objects crossing your sky now

CENTAURI-1

Track CENTAURI-1 now!
10-day predictions
CENTAURI-1 is classified as:


NORAD ID: 43809
Int'l Code: 2018-099BD
Perigee: 522.2 km
Apogee: 540.7 km
Inclination: 97.5 °
Period: 95.1 minutes
Semi major axis: 6902 km
RCS: Unknown
Launch date: December 3, 2018
Source: Australia (AUS)
Launch site: AIR FORCE WESTERN TEST RANGE (AFWTR)

Uplink (MHz):
Downlink (MHz): 400.625
Beacon (MHz):
Mode: 9600bps FSK
Call sign:
Status: Inactive

Your satellite tracking list
Your tracking list is empty




NASA's NSSDC Master Catalog

Two Line Element Set (TLE):
1 43809U 18099BD  25345.59239328  .00009327  00000-0  51738-3 0  9999
2 43809  97.4518  36.3479 0013387 257.7645 102.2088 15.13905067384092
Source of the keplerian elements: AFSPC